Tiempo cada hora Czysta

Hoy, 18 Junio, Viernes

Tiempo Temperatura Precipitaciones Viento Presión Humedad
00:00 +20°C° 0 mm 5 mps 762 mmHg 71%
01:00 +20°C° 0 mm 5 mps 762 mmHg 70%
02:00 +19°C° 0 mm 5 mps 762 mmHg 71%
03:00 +19°C° 0 mm 5 mps 762 mmHg 71%
04:00 +18°C° 0 mm 4 mps 762 mmHg 72%
05:00 +20°C° 0 mm 5 mps 762 mmHg 68%
06:00 +21°C° 0 mm 5 mps 762 mmHg 65%
07:00 +23°C° 0 mm 5 mps 762 mmHg 61%
08:00 +26°C° 0 mm 5 mps 762 mmHg 56%
09:00 +28°C° 0 mm 5 mps 762 mmHg 51%
10:00 +29°C° 0 mm 4 mps 761 mmHg 45%
11:00 +30°C° 0 mm 4 mps 761 mmHg 42%
12:00 +32°C° 0 mm 4 mps 761 mmHg 38%
13:00 +33°C° 0 mm 3 mps 761 mmHg 35%
14:00 +33°C° 0 mm 3 mps 761 mmHg 35%
15:00 +31°C° 0 mm 3 mps 761 mmHg 36%
16:00 +31°C° 0 mm 3 mps 761 mmHg 37%
17:00 +30°C° 0 mm 3 mps 761 mmHg 44%
18:00 +28°C° 0 mm 3 mps 761 mmHg 52%
19:00 +27°C° 0 mm 3 mps 760 mmHg 60%
20:00 +25°C° 0 mm 3 mps 761 mmHg 64%
21:00 +24°C° 0 mm 3 mps 761 mmHg 69%
22:00 +22°C° 0 mm 4 mps 761 mmHg 73%
23:00 +21°C° 0 mm 4 mps 761 mmHg 77%

Mañana, 19 Junio, Sábado

Tiempo Temperatura Precipitaciones Viento Presión Humedad
00:00 +21°C° 0 mm 4 mps 761 mmHg 80%
01:00 +21°C° 0 mm 4 mps 761 mmHg 83%
02:00 +20°C° 0 mm 4 mps 761 mmHg 84%
03:00 +20°C° 0 mm 4 mps 761 mmHg 85%
04:00 +20°C° 0 mm 4 mps 761 mmHg 86%
05:00 +22°C° 0 mm 4 mps 761 mmHg 79%
06:00 +23°C° 0 mm 5 mps 761 mmHg 73%
07:00 +26°C° 0 mm 5 mps 760 mmHg 66%
08:00 +28°C° 0 mm 5 mps 760 mmHg 59%
09:00 +29°C° 0 mm 5 mps 760 mmHg 53%
10:00 +32°C° 0 mm 5 mps 760 mmHg 47%
11:00 +32°C° 0 mm 4 mps 760 mmHg 44%
12:00 +33°C° 0 mm 4 mps 759 mmHg 42%
13:00 +34°C° 0 mm 3 mps 759 mmHg 40%
14:00 +34°C° 0 mm 3 mps 759 mmHg 40%
15:00 +33°C° 0 mm 3 mps 759 mmHg 41%
16:00 +33°C° 0 mm 3 mps 759 mmHg 41%
17:00 +32°C° 0 mm 4 mps 758 mmHg 47%
18:00 +30°C° 0 mm 4 mps 758 mmHg 52%
19:00 +28°C° 0 mm 4 mps 758 mmHg 57%
20:00 +27°C° 0 mm 4 mps 758 mmHg 61%
21:00 +26°C° 0 mm 4 mps 759 mmHg 64%
22:00 +25°C° 0 mm 4 mps 759 mmHg 67%
23:00 +24°C° 0 mm 3 mps 759 mmHg 71%

Pasado mañana, 20 Junio, Domingo

Tiempo Temperatura Precipitaciones Viento Presión Humedad
00:00 +24°C° 0 mm 3 mps 759 mmHg 74%
01:00 +22°C° 0 mm 3 mps 759 mmHg 77%
02:00 +21°C° 0 mm 3 mps 759 mmHg 81%
03:00 +21°C° 0 mm 2 mps 759 mmHg 85%
04:00 +20°C° 0 mm 2 mps 759 mmHg 89%
05:00 +21°C° 0.1 mm 2 mps 759 mmHg 84%
06:00 +24°C° 0.1 mm 2 mps 759 mmHg 79%
07:00 +25°C° 0.1 mm 3 mps 759 mmHg 74%
08:00 +26°C° 0 mm 3 mps 758 mmHg 69%
09:00 +28°C° 0 mm 3 mps 758 mmHg 63%
10:00 +29°C° 0 mm 3 mps 758 mmHg 58%
11:00 +30°C° 0 mm 3 mps 758 mmHg 53%
12:00 +30°C° 0 mm 4 mps 758 mmHg 49%
13:00 +32°C° 0 mm 4 mps 757 mmHg 45%
14:00 +32°C° 0 mm 5 mps 757 mmHg 45%
15:00 +32°C° 0 mm 5 mps 757 mmHg 44%
16:00 +33°C° 0 mm 5 mps 756 mmHg 44%
17:00 +30°C° 0 mm 5 mps 756 mmHg 49%
18:00 +29°C° 0 mm 5 mps 756 mmHg 55%
19:00 +28°C° 0 mm 5 mps 756 mmHg 60%
20:00 +27°C° 0 mm 5 mps 756 mmHg 65%
21:00 +25°C° 0 mm 4 mps 756 mmHg 69%
22:00 +23°C° 0 mm 4 mps 756 mmHg 74%
23:00 +22°C° 0 mm 4 mps 756 mmHg 76%

21 Junio, Lunes

Tiempo Temperatura Precipitaciones Viento Presión Humedad
00:00 +22°C° 0 mm 4 mps 756 mmHg 79%
01:00 +21°C° 0 mm 4 mps 755 mmHg 82%
02:00 +21°C° 0 mm 4 mps 755 mmHg 82%
03:00 +21°C° 0 mm 5 mps 755 mmHg 83%
04:00 +21°C° 0 mm 5 mps 754 mmHg 84%
05:00 +22°C° 0 mm 5 mps 754 mmHg 78%
06:00 +25°C° 0 mm 5 mps 754 mmHg 72%
07:00 +26°C° 0 mm 5 mps 754 mmHg 67%
08:00 +28°C° 0 mm 5 mps 754 mmHg 61%
09:00 +29°C° 0 mm 4 mps 754 mmHg 55%
10:00 +32°C° 0 mm 4 mps 754 mmHg 50%
11:00 +30°C° 0.3 mm 4 mps 754 mmHg 54%
12:00 +29°C° 0.3 mm 5 mps 754 mmHg 58%
13:00 +28°C° 0.3 mm 5 mps 753 mmHg 63%
14:00 +26°C° 1.6 mm 5 mps 754 mmHg 72%
15:00 +23°C° 1.6 mm 4 mps 754 mmHg 82%
16:00 +21°C° 1.6 mm 4 mps 754 mmHg 92%
17:00 +21°C° 1.3 mm 3 mps 755 mmHg 93%
18:00 +20°C° 1.3 mm 2 mps 755 mmHg 93%
19:00 +21°C° 1.3 mm 1 mps 755 mmHg 94%
20:00 +20°C° 0.3 mm 1 mps 755 mmHg 94%
21:00 +19°C° 0.3 mm 2 mps 755 mmHg 94%
22:00 +18°C° 0.3 mm 2 mps 755 mmHg 94%
23:00 +18°C° 0 mm 2 mps 755 mmHg 94%

22 Junio, Martes

Tiempo Temperatura Precipitaciones Viento Presión Humedad
00:00 +18°C° 0 mm 2 mps 755 mmHg 94%
01:00 +17°C° 0 mm 2 mps 755 mmHg 93%
02:00 +17°C° 0 mm 2 mps 756 mmHg 93%
03:00 +16°C° 0 mm 2 mps 756 mmHg 93%
04:00 +16°C° 0 mm 2 mps 756 mmHg 92%
05:00 +17°C° 0 mm 3 mps 756 mmHg 88%
06:00 +19°C° 0 mm 3 mps 757 mmHg 83%
07:00 +20°C° 0 mm 3 mps 757 mmHg 79%
08:00 +21°C° 0 mm 3 mps 757 mmHg 74%
09:00 +22°C° 0 mm 3 mps 757 mmHg 69%
10:00 +24°C° 0 mm 3 mps 758 mmHg 63%
11:00 +24°C° 0 mm 3 mps 758 mmHg 62%
12:00 +24°C° 0 mm 3 mps 758 mmHg 61%
13:00 +25°C° 0 mm 3 mps 758 mmHg 59%
14:00 +24°C° 0 mm 3 mps 758 mmHg 62%
15:00 +22°C° 0 mm 3 mps 758 mmHg 65%
16:00 +21°C° 0 mm 3 mps 758 mmHg 67%
17:00 +20°C° 0 mm 3 mps 758 mmHg 70%
18:00 +20°C° 0 mm 3 mps 758 mmHg 74%
19:00 +19°C° 0 mm 3 mps 758 mmHg 77%
20:00 +18°C° 0 mm 2 mps 759 mmHg 81%
21:00 +17°C° 0 mm 2 mps 759 mmHg 86%
22:00 +16°C° 0 mm 2 mps 759 mmHg 90%
23:00 +15°C° 0 mm 2 mps 759 mmHg 90%

23 Junio, Miércoles

Tiempo Temperatura Precipitaciones Viento Presión Humedad
00:00 +15°C° 0 mm 2 mps 759 mmHg 91%
01:00 +15°C° 0 mm 2 mps 759 mmHg 91%
02:00 +15°C° 0 mm 2 mps 758 mmHg 90%
03:00 +15°C° 0 mm 2 mps 758 mmHg 90%
04:00 +15°C° 0 mm 2 mps 758 mmHg 89%
05:00 +16°C° 0 mm 3 mps 758 mmHg 84%
06:00 +18°C° 0 mm 4 mps 758 mmHg 78%
07:00 +19°C° 0 mm 4 mps 758 mmHg 72%
08:00 +20°C° 0 mm 4 mps 757 mmHg 68%
09:00 +22°C° 0 mm 5 mps 757 mmHg 64%
10:00 +23°C° 0 mm 5 mps 756 mmHg 60%
11:00 +23°C° 0 mm 6 mps 756 mmHg 61%
12:00 +23°C° 0 mm 6 mps 756 mmHg 62%
13:00 +23°C° 0 mm 6 mps 755 mmHg 63%
14:00 +22°C° 0.2 mm 6 mps 755 mmHg 68%
15:00 +21°C° 0.2 mm 7 mps 754 mmHg 73%
16:00 +21°C° 0.2 mm 7 mps 754 mmHg 78%
17:00 +18°C° 1.9 mm 8 mps 754 mmHg 83%
18:00 +16°C° 1.9 mm 9 mps 754 mmHg 89%
19:00 +12°C° 1.9 mm 10 mps 755 mmHg 95%
20:00 +12°C° 0.3 mm 10 mps 755 mmHg 94%
21:00 +12°C° 0.3 mm 10 mps 756 mmHg 93%
22:00 +12°C° 0.3 mm 9 mps 757 mmHg 92%
23:00 +12°C° 0.1 mm 10 mps 757 mmHg 91%
Mostrar más

Necesitamos Su Consentimiento

Meteoprog y nuestros Proveedores de Servicios pueden almacenar y acceder a sus datos personales como cookies, identificadores de dispositivo u otras tecnologías similares de su dispositivo y procesar dichos datos para personalizar contenido y anuncios, además de ofrecer funciones de redes sociales y analizar el tráfico.

  • Almacenar y/o acceder a información en su dispositivo

    Se puede almacenar o acceder a cookies, identificadores de dispositivo u otra información de su dispositivo para los fines anteriormente indicados.

  • Anuncios y contenido personalizados, medición de anuncios y contenido, percepciones del público, y desarrollo de productos

    Los anuncios y el contenido pueden personalizarse en base a su perfil. Se pueden añadir más datos para personalizar mejor los anuncios y contenidos. Se puede medir el rendimiento de los anuncios y contenidos. Se puede obtener la percepción sobre el público que ha visto los anuncios y contenidos. Dichos datos pueden usarse para desarrollar o mejorar la experiencia del usuario, sistemas y software.

Al hacer clic en ‘Estoy De Acuerdo’ usted permitirá el uso de las cookies, identificadores de dispositivo, balizas web u otras tecnologías similares indicadas. Su configuración puede cambiarse desde el navegador de su dispositivo.

Para ciertos fines, los intereses legítimos pueden ser considerados por encima del consentimiento. Puede leer más sobre ello en nuestra Política de Privacidad y Cookies.